Time,TemperatureF,DewpointF,PressureIn,WindDirection,WindDirectionDegrees,WindSpeedMPH,WindSpeedGustMPH,Humidity,HourlyPrecipIn,Conditions,Clouds,dailyrainin,SoftwareType,DateUTC
2013-01-24 00:02:00,0.1,-18.9,21.56,NE,45,7.0,11.0,39,0.00,,,0.00,meteohub,2013-01-24 06:02:00,
2013-01-24 00:07:00,0.1,-18.9,21.56,NE,45,7.0,11.0,39,0.00,,,0.00,meteohub,2013-01-24 06:07:00,
2013-01-24 00:12:00,-0.2,-18.8,21.56,NE,45,5.0,8.0,40,0.00,,,0.00,meteohub,2013-01-24 06:12:00,
2013-01-24 00:17:00,-0.4,-18.9,21.56,NE,45,8.0,9.0,40,0.00,,,0.00,meteohub,2013-01-24 06:17:00,
2013-01-24 00:22:00,-0.4,-18.9,21.56,NE,45,7.0,11.0,40,0.00,,,0.00,meteohub,2013-01-24 06:22:00,
2013-01-24 00:27:00,-0.6,-18.6,21.55,NE,45,8.0,13.0,41,0.00,,,0.00,meteohub,2013-01-24 06:27:00,
2013-01-24 00:32:00,-0.8,-18.8,21.55,North,0,8.0,13.0,41,0.00,,,0.00,meteohub,2013-01-24 06:32:00,
2013-01-24 00:37:00,-0.8,-18.8,21.55,West,270,5.0,13.0,41,0.00,,,0.00,meteohub,2013-01-24 06:37:00,
2013-01-24 00:42:00,-0.9,-18.9,21.54,East,90,8.0,9.0,41,0.00,,,0.00,meteohub,2013-01-24 06:42:00,
2013-01-24 00:47:00,-0.9,-18.9,21.54,NE,45,7.0,12.0,41,0.00,,,0.00,meteohub,2013-01-24 06:47:00,
2013-01-24 00:52:00,-1.1,-19.1,21.53,North,0,5.0,12.0,41,0.00,,,0.00,meteohub,2013-01-24 06:52:00,
2013-01-24 00:57:00,-1.3,-19.3,21.53,NE,45,6.0,8.0,41,0.00,,,0.00,meteohub,2013-01-24 06:57:00,
2013-01-24 01:02:00,-1.3,-18.8,21.52,North,0,3.0,8.0,42,0.00,,,0.00,meteohub,2013-01-24 07:02:00,
2013-01-24 01:07:00,-1.3,-18.8,21.52,NE,45,8.0,8.0,42,0.00,,,0.00,meteohub,2013-01-24 07:07:00,
2013-01-24 01:12:00,-1.5,-18.9,21.52,NE,45,6.0,8.0,42,0.00,,,0.00,meteohub,2013-01-24 07:12:00,
2013-01-24 01:17:00,-1.5,-18.9,21.52,NE,45,8.0,9.0,42,0.00,,,0.00,meteohub,2013-01-24 07:17:00,
2013-01-24 01:22:00,-1.5,-18.9,21.52,NE,45,3.0,9.0,42,0.00,,,0.00,meteohub,2013-01-24 07:22:00,
2013-01-24 01:27:00,-1.8,-19.3,21.52,North,0,4.0,9.0,42,0.00,,,0.00,meteohub,2013-01-24 07:27:00,
2013-01-24 01:32:00,-1.8,-19.3,21.51,East,90,6.0,9.0,42,0.00,,,0.00,meteohub,2013-01-24 07:32:00,
2013-01-24 01:37:00,-2.0,-19.5,21.51,North,0,11.0,11.0,42,0.00,,,0.00,meteohub,2013-01-24 07:37:00,
2013-01-24 01:42:00,-2.0,-19.5,21.51,North,0,6.0,11.0,42,0.00,,,0.00,meteohub,2013-01-24 07:42:00,
2013-01-24 01:47:00,-2.2,-19.7,21.51,North,0,7.0,11.0,42,0.00,,,0.00,meteohub,2013-01-24 07:47:00,
2013-01-24 01:52:00,-2.2,-19.1,21.50,NE,45,7.0,11.0,43,0.00,,,0.00,meteohub,2013-01-24 07:52:00,
2013-01-24 01:57:00,-2.4,-18.9,21.50,East,90,7.0,11.0,44,0.00,,,0.00,meteohub,2013-01-24 07:57:00,
2013-01-24 02:02:00,-2.4,-18.9,21.50,NE,45,4.0,8.0,44,0.00,,,0.00,meteohub,2013-01-24 08:02:00,
2013-01-24 02:07:00,-2.6,-19.1,21.50,NE,45,4.0,8.0,44,0.00,,,0.00,meteohub,2013-01-24 08:07:00,
2013-01-24 02:12:00,-2.6,-19.1,21.50,NE,45,4.0,8.0,44,0.00,,,0.00,meteohub,2013-01-24 08:12:00,
2013-01-24 02:17:00,-2.6,-19.1,21.50,North,0,4.0,8.0,44,0.00,,,0.00,meteohub,2013-01-24 08:17:00,
2013-01-24 02:22:00,-2.7,-19.3,21.50,NE,45,6.0,8.0,44,0.00,,,0.00,meteohub,2013-01-24 08:22:00,
2013-01-24 02:27:00,-2.7,-19.3,21.50,North,0,6.0,8.0,44,0.00,,,0.00,meteohub,2013-01-24 08:27:00,
2013-01-24 02:32:00,-2.9,-18.9,21.49,North,0,8.0,8.0,45,0.00,,,0.00,meteohub,2013-01-24 08:32:00,
2013-01-24 02:37:00,-2.7,-18.8,21.49,North,0,6.0,8.0,45,0.00,,,0.00,meteohub,2013-01-24 08:37:00,
2013-01-24 02:42:00,-2.9,-18.9,21.49,NE,45,4.0,8.0,45,0.00,,,0.00,meteohub,2013-01-24 08:42:00,
2013-01-24 02:47:00,-2.9,-18.9,21.49,NE,45,5.0,9.0,45,0.00,,,0.00,meteohub,2013-01-24 08:47:00,
2013-01-24 02:52:00,-2.9,-18.9,21.49,SE,135,12.0,12.0,45,0.00,,,0.00,meteohub,2013-01-24 08:52:00,
2013-01-24 02:57:00,-3.1,-19.1,21.49,North,0,6.0,12.0,45,0.00,,,0.00,meteohub,2013-01-24 08:57:00,
2013-01-24 03:02:00,-3.1,-19.1,21.49,North,0,4.0,12.0,45,0.00,,,0.00,meteohub,2013-01-24 09:02:00,
2013-01-24 03:07:00,-3.3,-19.3,21.49,NE,45,9.0,12.0,45,0.00,,,0.00,meteohub,2013-01-24 09:07:00,
2013-01-24 03:12:00,-3.3,-19.3,21.48,NE,45,4.0,11.0,45,0.00,,,0.00,meteohub,2013-01-24 09:12:00,
2013-01-24 03:18:00,-3.5,-19.5,21.48,NE,45,6.0,11.0,45,0.00,,,0.00,meteohub,2013-01-24 09:18:00,
2013-01-24 03:23:00,-3.5,-19.1,21.48,NE,45,6.0,11.0,46,0.00,,,0.00,meteohub,2013-01-24 09:23:00,
2013-01-24 03:28:00,-3.3,-18.9,21.48,East,90,9.0,11.0,46,0.00,,,0.00,meteohub,2013-01-24 09:28:00,
2013-01-24 03:33:00,-3.1,-18.8,21.48,NE,45,6.0,11.0,46,0.00,,,0.00,meteohub,2013-01-24 09:33:00,
2013-01-24 03:38:00,-3.1,-18.8,21.47,NNE,23,7.0,11.0,46,0.00,,,0.00,meteohub,2013-01-24 09:38:00,
2013-01-24 03:43:00,-3.1,-18.8,21.47,ENE,68,8.0,11.0,46,0.00,,,0.00,meteohub,2013-01-24 09:43:00,
2013-01-24 03:48:00,-3.1,-18.8,21.47,NE,45,5.0,10.0,46,0.00,,,0.00,meteohub,2013-01-24 09:48:00,
2013-01-24 03:53:00,-3.1,-18.8,21.47,NNW,338,4.0,10.0,46,0.00,,,0.00,meteohub,2013-01-24 09:53:00,
2013-01-24 03:58:00,-3.1,-18.8,21.47,NE,45,8.0,13.0,46,0.00,,,0.00,meteohub,2013-01-24 09:58:00,
2013-01-24 04:03:00,-3.1,-18.8,21.47,NE,45,6.0,13.0,46,0.00,,,0.00,meteohub,2013-01-24 10:03:00,
2013-01-24 04:08:00,-3.3,-18.9,21.46,NE,45,5.0,13.0,46,0.00,,,0.00,meteohub,2013-01-24 10:08:00,
2013-01-24 04:13:00,-3.3,-18.9,21.46,NE,45,4.0,9.0,46,0.00,,,0.00,meteohub,2013-01-24 10:13:00,
2013-01-24 04:18:00,-3.3,-18.9,21.46,NE,45,8.0,8.0,46,0.00,,,0.00,meteohub,2013-01-24 10:18:00,
2013-01-24 04:23:00,-3.5,-19.1,21.46,NE,45,6.0,12.0,46,0.00,,,0.00,meteohub,2013-01-24 10:23:00,
2013-01-24 04:28:00,-3.5,-19.1,21.45,NE,45,4.0,12.0,46,0.00,,,0.00,meteohub,2013-01-24 10:28:00,
2013-01-24 04:33:00,-3.5,-19.1,21.45,NE,45,5.0,11.0,46,0.00,,,0.00,meteohub,2013-01-24 10:33:00,
2013-01-24 04:38:00,-3.5,-19.1,21.44,NE,45,4.0,8.0,46,0.00,,,0.00,meteohub,2013-01-24 10:38:00,
2013-01-24 04:43:00,-3.5,-19.1,21.44,NE,45,4.0,9.0,46,0.00,,,0.00,meteohub,2013-01-24 10:43:00,
2013-01-24 04:48:00,-3.5,-19.1,21.44,NE,45,4.0,9.0,46,0.00,,,0.00,meteohub,2013-01-24 10:48:00,
2013-01-24 04:53:00,-3.5,-19.1,21.44,NE,45,7.0,9.0,46,0.00,,,0.00,meteohub,2013-01-24 10:53:00,
2013-01-24 04:58:00,-3.5,-19.1,21.43,NE,45,5.0,8.0,46,0.00,,,0.00,meteohub,2013-01-24 10:58:00,
2013-01-24 05:03:00,-3.6,-19.3,21.43,NE,45,4.0,8.0,46,0.00,,,0.00,meteohub,2013-01-24 11:03:00,
2013-01-24 05:08:00,-3.6,-19.3,21.44,NE,45,2.0,8.0,46,0.00,,,0.00,meteohub,2013-01-24 11:08:00,
2013-01-24 05:13:00,-3.6,-19.3,21.43,NE,45,4.0,8.0,46,0.00,,,0.00,meteohub,2013-01-24 11:13:00,
2013-01-24 05:18:00,-3.8,-19.5,21.43,NE,45,4.0,8.0,46,0.00,,,0.00,meteohub,2013-01-24 11:18:00,
2013-01-24 05:23:00,-3.8,-18.9,21.43,NW,315,4.0,7.0,47,0.00,,,0.00,meteohub,2013-01-24 11:23:00,
2013-01-24 05:28:00,-4.0,-19.1,21.43,NE,45,2.0,7.0,47,0.00,,,0.00,meteohub,2013-01-24 11:28:00,
2013-01-24 05:33:00,-4.0,-19.1,21.43,East,90,3.0,6.0,47,0.00,,,0.00,meteohub,2013-01-24 11:33:00,
2013-01-24 05:38:00,-3.8,-18.9,21.43,ESE,113,5.0,6.0,47,0.00,,,0.00,meteohub,2013-01-24 11:38:00,
2013-01-24 05:43:00,-3.8,-18.9,21.43,NE,45,7.0,8.0,47,0.00,,,0.00,meteohub,2013-01-24 11:43:00,
2013-01-24 05:48:00,-3.8,-18.9,21.43,ENE,68,6.0,8.0,47,0.00,,,0.00,meteohub,2013-01-24 11:48:00,
2013-01-24 05:53:00,-3.8,-18.9,21.43,North,0,3.0,8.0,47,0.00,,,0.00,meteohub,2013-01-24 11:53:00,
2013-01-24 05:58:00,-3.6,-18.8,21.42,NE,45,6.0,7.0,47,0.00,,,0.00,meteohub,2013-01-24 11:58:00,
2013-01-24 06:06:00,-3.6,-18.8,21.42,NE,45,5.0,8.0,47,0.00,,,0.00,meteohub,2013-01-24 12:06:00,
2013-01-24 06:11:00,-3.8,-18.9,21.42,North,0,5.0,8.0,47,0.00,,,0.00,meteohub,2013-01-24 12:11:00,
2013-01-24 06:16:00,-4.0,-19.1,21.43,NE,45,7.0,7.0,47,0.00,,,0.00,meteohub,2013-01-24 12:16:00,
2013-01-24 06:21:00,-4.0,-19.1,21.42,NE,45,8.0,8.0,47,0.00,,,0.00,meteohub,2013-01-24 12:21:00,
2013-01-24 06:26:00,-4.0,-19.1,21.42,NE,45,3.0,8.0,47,0.00,,,0.00,meteohub,2013-01-24 12:26:00,
2013-01-24 06:31:00,-4.0,-19.1,21.42,East,90,8.0,8.0,47,0.00,,,0.00,meteohub,2013-01-24 12:31:00,
2013-01-24 06:36:00,-4.0,-19.1,21.42,NE,45,6.0,8.0,47,0.00,,,0.00,meteohub,2013-01-24 12:36:00,
2013-01-24 06:41:00,-4.0,-19.1,21.41,NE,45,4.0,8.0,47,0.00,,,0.00,meteohub,2013-01-24 12:41:00,
2013-01-24 06:46:00,-3.8,-18.9,21.41,NE,45,6.0,8.0,47,0.00,,,0.00,meteohub,2013-01-24 12:46:00,
2013-01-24 06:51:00,-3.8,-18.6,21.41,East,90,3.0,7.0,48,0.00,,,0.00,meteohub,2013-01-24 12:51:00,
2013-01-24 06:56:00,-3.8,-18.6,21.41,NE,45,5.0,10.0,48,0.00,,,0.00,meteohub,2013-01-24 12:56:00,
2013-01-24 07:01:00,-3.8,-18.6,21.41,NE,45,5.0,10.0,48,0.00,,,0.00,meteohub,2013-01-24 13:01:00,
2013-01-24 07:06:00,-3.8,-18.6,21.41,NE,45,4.0,10.0,48,0.00,,,0.00,meteohub,2013-01-24 13:06:00,
2013-01-24 07:11:00,-3.8,-18.6,21.40,North,0,4.0,5.0,48,0.00,,,0.00,meteohub,2013-01-24 13:11:00,
2013-01-24 07:16:00,-3.8,-18.6,21.40,NE,45,5.0,5.0,48,0.00,,,0.00,meteohub,2013-01-24 13:16:00,
2013-01-24 07:21:00,-4.0,-18.8,21.40,North,0,4.0,7.0,48,0.00,,,0.00,meteohub,2013-01-24 13:21:00,
2013-01-24 07:26:00,-4.0,-18.8,21.39,NE,45,5.0,7.0,48,0.00,,,0.00,meteohub,2013-01-24 13:26:00,
2013-01-24 07:31:00,-4.0,-18.8,21.39,NE,45,3.0,7.0,48,0.00,,,0.00,meteohub,2013-01-24 13:31:00,
2013-01-24 07:36:00,-4.0,-18.8,21.39,NE,45,2.0,6.0,48,0.00,,,0.00,meteohub,2013-01-24 13:36:00,
2013-01-24 07:41:00,-4.0,-18.8,21.39,North,0,3.0,6.0,48,0.00,,,0.00,meteohub,2013-01-24 13:41:00,
2013-01-24 07:46:00,-4.0,-18.8,21.39,NE,45,2.0,6.0,48,0.00,,,0.00,meteohub,2013-01-24 13:46:00,
2013-01-24 07:51:00,-4.0,-18.8,21.39,East,90,4.0,6.0,48,0.00,,,0.00,meteohub,2013-01-24 13:51:00,
2013-01-24 07:56:00,-3.6,-18.4,21.39,North,0,3.0,6.0,48,0.00,,,0.00,meteohub,2013-01-24 13:56:00,
2013-01-24 08:01:00,-3.6,-18.4,21.39,North,0,5.0,6.0,48,0.00,,,0.00,meteohub,2013-01-24 14:01:00,
2013-01-24 08:06:00,-3.6,-18.4,21.39,North,0,5.0,6.0,48,0.00,,,0.00,meteohub,2013-01-24 14:06:00,
2013-01-24 08:11:00,-3.3,-18.4,21.38,NE,45,2.0,6.0,47,0.00,,,0.00,meteohub,2013-01-24 14:11:00,
2013-01-24 08:16:00,-3.1,-18.4,21.38,NNE,23,2.0,5.0,47,0.00,,,0.00,meteohub,2013-01-24 14:16:00,
2013-01-24 08:21:00,-2.9,-18.2,21.38,ENE,68,4.0,6.0,47,0.00,,,0.00,meteohub,2013-01-24 14:21:00,
2013-01-24 08:26:00,-2.9,-18.2,21.38,East,90,4.0,6.0,47,0.00,,,0.00,meteohub,2013-01-24 14:26:00,
2013-01-24 08:31:00,-2.7,-18.0,21.38,ENE,68,7.0,7.0,47,0.00,,,0.00,meteohub,2013-01-24 14:31:00,
2013-01-24 08:36:00,-2.4,-18.0,21.38,West,270,3.0,7.0,46,0.00,,,0.00,meteohub,2013-01-24 14:36:00,
2013-01-24 08:41:00,-1.8,-18.0,21.38,East,90,4.0,7.0,45,0.00,,,0.00,meteohub,2013-01-24 14:41:00,
2013-01-24 08:46:00,-1.5,-17.7,21.38,North,0,2.0,7.0,45,0.00,,,0.00,meteohub,2013-01-24 14:46:00,
2013-01-24 08:51:00,-1.1,-17.3,21.37,East,90,3.0,6.0,45,0.00,,,0.00,meteohub,2013-01-24 14:51:00,
2013-01-24 08:56:00,-1.1,-17.9,21.37,NE,45,4.0,4.0,44,0.00,,,0.00,meteohub,2013-01-24 14:56:00,
2013-01-24 09:01:00,-0.8,-17.5,21.38,NE,45,2.0,6.0,44,0.00,,,0.00,meteohub,2013-01-24 15:01:00,
2013-01-24 09:06:00,-0.4,-17.5,21.37,North,0,3.0,6.0,43,0.00,,,0.00,meteohub,2013-01-24 15:06:00,
2013-01-24 09:11:00,-0.4,-18.0,21.38,NE,45,6.0,6.0,42,0.00,,,0.00,meteohub,2013-01-24 15:11:00,
2013-01-24 09:16:00,0.0,-18.2,21.38,NE,45,5.0,6.0,41,0.00,,,0.00,meteohub,2013-01-24 15:16:00,
2013-01-24 09:21:00,0.3,-17.9,21.38,East,90,3.0,6.0,41,0.00,,,0.00,meteohub,2013-01-24 15:21:00,
2013-01-24 09:26:00,0.9,-17.3,21.38,East,90,2.0,6.0,41,0.00,,,0.00,meteohub,2013-01-24 15:26:00,
2013-01-24 09:31:00,1.9,-14.4,21.38,East,90,5.0,5.0,45,0.00,,,0.00,meteohub,2013-01-24 15:31:00,
2013-01-24 09:36:00,2.3,-14.6,21.38,SE,135,4.0,5.0,44,0.00,,,0.00,meteohub,2013-01-24 15:36:00,
2013-01-24 09:41:00,3.6,-13.9,21.38,NE,45,3.0,5.0,43,0.00,,,0.00,meteohub,2013-01-24 15:41:00,
2013-01-24 09:46:00,4.3,-13.4,21.38,East,90,2.0,5.0,43,0.00,,,0.00,meteohub,2013-01-24 15:46:00,
2013-01-24 09:51:00,4.8,-13.2,21.38,East,90,2.0,4.0,42,0.00,,,0.00,meteohub,2013-01-24 15:51:00,
2013-01-24 09:56:00,4.6,-13.9,21.39,SE,135,8.0,8.0,41,0.00,,,0.00,meteohub,2013-01-24 15:56:00,
2013-01-24 10:01:00,4.1,-14.8,21.38,SE,135,5.0,8.0,40,0.00,,,0.00,meteohub,2013-01-24 16:01:00,
2013-01-24 10:06:00,4.1,-14.8,21.39,SE,135,5.0,8.0,40,0.00,,,0.00,meteohub,2013-01-24 16:06:00,
2013-01-24 10:11:00,4.8,-15.2,21.39,SE,135,4.0,8.0,38,0.00,,,0.00,meteohub,2013-01-24 16:11:00,
2013-01-24 10:16:00,5.0,-15.5,21.39,SE,135,6.0,7.0,37,0.00,,,0.00,meteohub,2013-01-24 16:16:00,
2013-01-24 10:21:00,5.2,-15.0,21.39,NE,45,4.0,7.0,38,0.00,,,0.00,meteohub,2013-01-24 16:21:00,
2013-01-24 10:26:00,5.5,-14.6,21.39,SE,135,5.0,7.0,38,0.00,,,0.00,meteohub,2013-01-24 16:26:00,
2013-01-24 10:31:00,5.7,-15.0,21.39,SE,135,3.0,7.0,37,0.00,,,0.00,meteohub,2013-01-24 16:31:00,
2013-01-24 10:36:00,7.0,-13.7,21.39,SE,135,2.0,7.0,37,0.00,,,0.00,meteohub,2013-01-24 16:36:00,
2013-01-24 10:41:00,8.6,-12.8,21.39,SE,135,2.0,6.0,36,0.00,,,0.00,meteohub,2013-01-24 16:41:00,
2013-01-24 10:46:00,9.0,-13.7,21.39,West,270,2.0,4.0,34,0.00,,,0.00,meteohub,2013-01-24 16:46:00,
2013-01-24 10:51:00,8.1,-15.2,21.39,East,90,5.0,5.0,33,0.00,,,0.00,meteohub,2013-01-24 16:51:00,
2013-01-24 10:56:00,8.4,-15.3,21.40,SE,135,4.0,5.0,32,0.00,,,0.00,meteohub,2013-01-24 16:56:00,
2013-01-24 11:01:00,8.1,-16.4,21.40,SE,135,5.0,5.0,31,0.00,,,0.00,meteohub,2013-01-24 17:01:00,
2013-01-24 11:06:00,7.7,-16.6,21.40,SE,135,2.0,5.0,31,0.00,,,0.00,meteohub,2013-01-24 17:06:00,
2013-01-24 11:11:00,8.2,-15.5,21.40,NW,315,5.0,5.0,32,0.00,,,0.00,meteohub,2013-01-24 17:11:00,
2013-01-24 11:16:00,8.2,-15.5,21.40,NW,315,2.0,5.0,32,0.00,,,0.00,meteohub,2013-01-24 17:16:00,
2013-01-24 11:21:00,9.0,-15.5,21.40,SW,225,2.0,5.0,31,0.00,,,0.00,meteohub,2013-01-24 17:21:00,
2013-01-24 11:26:00,10.0,-13.9,21.41,SE,135,2.0,5.0,32,0.00,,,0.00,meteohub,2013-01-24 17:26:00,
2013-01-24 11:31:00,11.3,-10.5,21.41,NW,315,1.0,3.0,36,0.00,,,0.00,meteohub,2013-01-24 17:31:00,
2013-01-24 11:36:00,8.8,-17.0,21.41,SW,225,5.0,7.0,29,0.00,,,0.00,meteohub,2013-01-24 17:36:00,
2013-01-24 11:41:00,8.1,-17.0,21.41,West,270,3.0,8.0,30,0.00,,,0.00,meteohub,2013-01-24 17:41:00,
2013-01-24 11:46:00,8.1,-17.0,21.41,SW,225,7.0,8.0,30,0.00,,,0.00,meteohub,2013-01-24 17:46:00,
2013-01-24 11:51:00,7.9,-16.4,21.41,SW,225,4.0,8.0,31,0.00,,,0.00,meteohub,2013-01-24 17:51:00,
2013-01-24 11:56:00,8.2,-16.2,21.42,West,270,4.0,7.0,31,0.00,,,0.00,meteohub,2013-01-24 17:56:00,
2013-01-24 12:01:00,8.1,-16.4,21.42,West,270,4.0,7.0,31,0.00,,,0.00,meteohub,2013-01-24 18:01:00,
2013-01-24 12:06:00,8.8,-15.7,21.42,SW,225,4.0,5.0,31,0.00,,,0.00,meteohub,2013-01-24 18:06:00,
2013-01-24 12:11:00,9.3,-15.2,21.43,South,180,3.0,5.0,31,0.00,,,0.00,meteohub,2013-01-24 18:11:00,
2013-01-24 12:16:00,11.5,-10.3,21.43,West,270,2.0,5.0,36,0.00,,,0.00,meteohub,2013-01-24 18:16:00,
2013-01-24 12:21:00,10.9,-11.9,21.43,NW,315,2.0,5.0,34,0.00,,,0.00,meteohub,2013-01-24 18:21:00,
2013-01-24 12:26:00,11.3,-11.6,21.44,East,90,2.0,5.0,34,0.00,,,0.00,meteohub,2013-01-24 18:26:00,
2013-01-24 12:31:00,11.3,-12.3,21.44,SW,225,7.0,7.0,33,0.00,,,0.00,meteohub,2013-01-24 18:31:00,
2013-01-24 12:36:00,11.5,-12.1,21.44,West,270,4.0,7.0,33,0.00,,,0.00,meteohub,2013-01-24 18:36:00,
2013-01-24 12:41:00,10.4,-13.0,21.44,South,180,4.0,7.0,33,0.00,,,0.00,meteohub,2013-01-24 18:41:00,
2013-01-24 12:46:00,10.2,-15.7,21.44,South,180,3.0,7.0,29,0.00,,,0.00,meteohub,2013-01-24 18:46:00,
2013-01-24 12:51:00,12.2,-10.8,21.44,West,270,4.0,7.0,34,0.00,,,0.00,meteohub,2013-01-24 18:51:00,
2013-01-24 12:56:00,10.9,-12.5,21.44,West,270,6.0,6.0,33,0.00,,,0.00,meteohub,2013-01-24 18:56:00,
2013-01-24 13:01:00,10.8,-12.6,21.44,NW,315,6.0,6.0,33,0.00,,,0.00,meteohub,2013-01-24 19:01:00,
2013-01-24 13:06:00,10.2,-15.7,21.45,NW,315,4.0,6.0,29,0.00,,,0.00,meteohub,2013-01-24 19:06:00,
2013-01-24 13:11:00,11.3,-12.3,21.45,NNW,338,4.0,6.0,33,0.00,,,0.00,meteohub,2013-01-24 19:11:00,
2013-01-24 13:16:00,10.9,-12.5,21.45,West,270,3.0,6.0,33,0.00,,,0.00,meteohub,2013-01-24 19:16:00,
2013-01-24 13:21:00,12.4,-11.2,21.46,West,270,4.0,5.0,33,0.00,,,0.00,meteohub,2013-01-24 19:21:00,
2013-01-24 13:26:00,12.2,-12.1,21.45,West,270,2.0,5.0,32,0.00,,,0.00,meteohub,2013-01-24 19:26:00,
2013-01-24 13:31:00,12.2,-12.1,21.46,West,270,3.0,4.0,32,0.00,,,0.00,meteohub,2013-01-24 19:31:00,
2013-01-24 13:36:00,10.9,-12.5,21.45,WNW,293,4.0,4.0,33,0.00,,,0.00,meteohub,2013-01-24 19:36:00,
2013-01-24 13:41:00,10.9,-12.5,21.46,NW,315,3.0,5.0,33,0.00,,,0.00,meteohub,2013-01-24 19:41:00,
2013-01-24 13:46:00,11.8,-11.2,21.46,SE,135,1.0,5.0,34,0.00,,,0.00,meteohub,2013-01-24 19:46:00,
2013-01-24 13:52:00,14.0,-9.8,21.46,NW,315,2.0,5.0,33,0.00,,,0.00,meteohub,2013-01-24 19:52:00,
2013-01-24 13:57:00,13.6,-10.1,21.47,SW,225,3.0,4.0,33,0.00,,,0.00,meteohub,2013-01-24 19:57:00,
2013-01-24 14:01:00,12.6,-11.7,21.47,South,180,2.0,4.0,32,0.00,,,0.00,meteohub,2013-01-24 20:01:00,
2013-01-24 14:06:00,12.6,-11.7,21.47,South,180,2.0,4.0,32,0.00,,,0.00,meteohub,2013-01-24 20:06:00,
2013-01-24 14:11:00,12.9,-11.4,21.48,SE,135,3.0,4.0,32,0.00,,,0.00,meteohub,2013-01-24 20:11:00,
2013-01-24 14:17:00,12.6,-11.7,21.48,SE,135,4.0,4.0,32,0.00,,,0.00,meteohub,2013-01-24 20:17:00,
2013-01-24 14:22:00,12.0,-11.6,21.48,SW,225,3.0,4.0,33,0.00,,,0.00,meteohub,2013-01-24 20:22:00,
2013-01-24 14:27:00,11.1,-12.5,21.48,SW,225,4.0,4.0,33,0.00,,,0.00,meteohub,2013-01-24 20:27:00,
2013-01-24 14:32:00,10.9,-12.5,21.48,SW,225,4.0,4.0,33,0.00,,,0.00,meteohub,2013-01-24 20:32:00,
2013-01-24 14:37:00,11.5,-11.4,21.48,South,180,1.0,4.0,34,0.00,,,0.00,meteohub,2013-01-24 20:37:00,
2013-01-24 14:42:00,11.8,-11.2,21.49,SE,135,0.0,4.0,34,0.00,,,0.00,meteohub,2013-01-24 20:42:00,
2013-01-24 14:47:00,11.8,-11.2,21.48,NE,45,3.0,4.0,34,0.00,,,0.00,meteohub,2013-01-24 20:47:00,
2013-01-24 14:52:00,11.8,-11.7,21.49,North,0,3.0,4.0,33,0.00,,,0.00,meteohub,2013-01-24 20:52:00,
2013-01-24 14:57:00,12.0,-11.6,21.48,East,90,2.0,3.0,33,0.00,,,0.00,meteohub,2013-01-24 20:57:00,
2013-01-24 15:02:00,12.6,-11.0,21.49,NE,45,2.0,3.0,33,0.00,,,0.00,meteohub,2013-01-24 21:02:00,
2013-01-24 15:07:00,12.6,-11.0,21.49,South,180,2.0,3.0,33,0.00,,,0.00,meteohub,2013-01-24 21:07:00,
2013-01-24 15:12:00,12.4,-11.2,21.49,South,180,2.0,3.0,33,0.00,,,0.00,meteohub,2013-01-24 21:12:00,
2013-01-24 15:17:00,12.4,-11.2,21.49,SW,225,1.0,3.0,33,0.00,,,0.00,meteohub,2013-01-24 21:17:00,
2013-01-24 15:22:00,12.7,-11.0,21.49,SE,135,2.0,2.0,33,0.00,,,0.00,meteohub,2013-01-24 21:22:00,
2013-01-24 15:27:00,12.4,-11.2,21.50,SE,135,1.0,2.0,33,0.00,,,0.00,meteohub,2013-01-24 21:27:00,
2013-01-24 15:32:00,12.6,-11.0,21.50,South,180,1.0,2.0,33,0.00,,,0.00,meteohub,2013-01-24 21:32:00,
2013-01-24 15:37:00,12.6,-11.0,21.50,SE,135,2.0,2.0,33,0.00,,,0.00,meteohub,2013-01-24 21:37:00,
2013-01-24 15:42:00,12.2,-11.4,21.50,SW,225,1.0,2.0,33,0.00,,,0.00,meteohub,2013-01-24 21:42:00,
2013-01-24 15:47:00,12.4,-11.2,21.50,West,270,4.0,4.0,33,0.00,,,0.00,meteohub,2013-01-24 21:47:00,
2013-01-24 15:52:00,11.5,-12.1,21.51,WSW,248,4.0,4.0,33,0.00,,,0.00,meteohub,2013-01-24 21:52:00,
2013-01-24 15:57:00,10.9,-12.5,21.50,West,270,2.0,4.0,33,0.00,,,0.00,meteohub,2013-01-24 21:57:00,
2013-01-24 16:02:00,10.9,-11.9,21.50,West,270,4.0,4.0,34,0.00,,,0.00,meteohub,2013-01-24 22:02:00,
2013-01-24 16:07:00,10.9,-11.9,21.51,West,270,4.0,4.0,34,0.00,,,0.00,meteohub,2013-01-24 22:07:00,
2013-01-24 16:12:00,11.1,-11.2,21.50,SE,135,2.0,4.0,35,0.00,,,0.00,meteohub,2013-01-24 22:12:00,
2013-01-24 16:17:00,11.1,-11.2,21.51,SW,225,2.0,4.0,35,0.00,,,0.00,meteohub,2013-01-24 22:17:00,
2013-01-24 16:22:00,11.1,-11.2,21.51,SE,135,2.0,4.0,35,0.00,,,0.00,meteohub,2013-01-24 22:22:00,
2013-01-24 16:27:00,11.5,-10.3,21.52,South,180,2.0,4.0,36,0.00,,,0.00,meteohub,2013-01-24 22:27:00,
2013-01-24 16:32:00,11.3,-10.5,21.52,SW,225,2.0,4.0,36,0.00,,,0.00,meteohub,2013-01-24 22:32:00,
2013-01-24 16:37:00,10.9,-10.8,21.52,SE,135,2.0,3.0,36,0.00,,,0.00,meteohub,2013-01-24 22:37:00,
2013-01-24 16:42:00,10.8,-11.0,21.52,SE,135,2.0,3.0,36,0.00,,,0.00,meteohub,2013-01-24 22:42:00,
2013-01-24 16:47:00,10.6,-11.2,21.52,SW,225,4.0,4.0,36,0.00,,,0.00,meteohub,2013-01-24 22:47:00,
2013-01-24 16:52:00,10.4,-11.2,21.52,SW,225,2.0,4.0,36,0.00,,,0.00,meteohub,2013-01-24 22:52:00,
2013-01-24 16:57:00,10.4,-11.2,21.52,SW,225,3.0,4.0,36,0.00,,,0.00,meteohub,2013-01-24 22:57:00,
2013-01-24 17:02:00,10.4,-10.7,21.52,South,180,2.0,4.0,37,0.00,,,0.00,meteohub,2013-01-24 23:02:00,
2013-01-24 17:07:00,10.2,-13.2,21.53,South,180,3.0,4.0,33,0.00,,,0.00,meteohub,2013-01-24 23:07:00,
2013-01-24 17:12:00,10.2,-13.2,21.53,South,180,4.0,4.0,33,0.00,,,0.00,meteohub,2013-01-24 23:12:00,
2013-01-24 17:17:00,10.2,-13.2,21.53,SE,135,2.0,4.0,33,0.00,,,0.00,meteohub,2013-01-24 23:17:00,
2013-01-24 17:22:00,10.0,-12.8,21.53,SW,225,3.0,5.0,34,0.00,,,0.00,meteohub,2013-01-24 23:22:00,
2013-01-24 17:27:00,10.2,-11.9,21.54,South,180,4.0,5.0,35,0.00,,,0.00,meteohub,2013-01-24 23:27:00,
2013-01-24 17:32:00,10.2,-11.4,21.54,SE,135,3.0,5.0,36,0.00,,,0.00,meteohub,2013-01-24 23:32:00,
2013-01-24 17:37:00,10.2,-11.4,21.55,SW,225,3.0,6.0,36,0.00,,,0.00,meteohub,2013-01-24 23:37:00,
2013-01-24 17:42:00,10.2,-11.4,21.55,West,270,2.0,6.0,36,0.00,,,0.00,meteohub,2013-01-24 23:42:00,
2013-01-24 17:46:00,10.4,-8.1,21.55,SW,225,5.0,6.0,42,0.00,,,0.00,meteohub,2013-01-24 23:46:00,
2013-01-24 17:51:00,10.4,-8.1,21.55,SW,225,6.0,6.0,42,0.00,,,0.00,meteohub,2013-01-24 23:51:00,
2013-01-24 17:57:00,10.2,-10.3,21.55,SW,225,4.0,6.0,38,0.00,,,0.00,meteohub,2013-01-24 23:57:00,
2013-01-24 18:02:00,10.2,-10.3,21.56,SW,225,9.0,9.0,38,0.00,,,0.00,meteohub,2013-01-25 00:02:00,
2013-01-24 18:07:00,10.2,-10.3,21.57,SW,225,9.0,9.0,38,0.00,,,0.00,meteohub,2013-01-25 00:07:00,
2013-01-24 18:12:00,10.2,-10.3,21.57,SW,225,4.0,9.0,38,0.00,,,0.00,meteohub,2013-01-25 00:12:00,
2013-01-24 18:17:00,10.2,-10.3,21.57,WSW,248,7.0,9.0,38,0.00,,,0.00,meteohub,2013-01-25 00:17:00,
2013-01-24 18:22:00,10.2,-10.3,21.58,West,270,3.0,9.0,38,0.00,,,0.00,meteohub,2013-01-25 00:22:00,
2013-01-24 18:26:00,10.2,-9.8,21.58,SW,225,4.0,9.0,39,0.00,,,0.00,meteohub,2013-01-25 00:26:00,
2013-01-24 18:31:00,10.0,-9.9,21.58,SSW,203,5.0,9.0,39,0.00,,,0.00,meteohub,2013-01-25 00:31:00,
2013-01-24 18:36:00,10.0,-9.9,21.58,SW,225,8.0,8.0,39,0.00,,,0.00,meteohub,2013-01-25 00:36:00,
2013-01-24 18:41:00,10.0,-9.9,21.58,SW,225,6.0,8.0,39,0.00,,,0.00,meteohub,2013-01-25 00:41:00,
2013-01-24 18:46:00,10.0,-9.9,21.58,SW,225,4.0,9.0,39,0.00,,,0.00,meteohub,2013-01-25 00:46:00,
2013-01-24 18:52:00,10.2,-9.8,21.58,West,270,5.0,9.0,39,0.00,,,0.00,meteohub,2013-01-25 00:52:00,
2013-01-24 18:57:00,10.2,-9.4,21.58,SW,225,6.0,8.0,40,0.00,,,0.00,meteohub,2013-01-25 00:57:00,
2013-01-24 19:02:00,10.2,-9.4,21.58,SW,225,4.0,7.0,40,0.00,,,0.00,meteohub,2013-01-25 01:02:00,
2013-01-24 19:07:00,10.2,-9.4,21.58,South,180,4.0,7.0,40,0.00,,,0.00,meteohub,2013-01-25 01:07:00,
2013-01-24 19:12:00,10.2,-9.4,21.58,South,180,8.0,8.0,40,0.00,,,0.00,meteohub,2013-01-25 01:12:00,
2013-01-24 19:17:00,10.0,-9.4,21.59,SW,225,8.0,8.0,40,0.00,,,0.00,meteohub,2013-01-25 01:17:00,
2013-01-24 19:21:00,10.0,-9.0,21.59,SW,225,6.0,8.0,41,0.00,,,0.00,meteohub,2013-01-25 01:21:00,
2013-01-24 19:26:00,10.0,-9.4,21.59,West,270,3.0,8.0,40,0.00,,,0.00,meteohub,2013-01-25 01:26:00,
2013-01-24 19:31:00,10.0,-9.0,21.60,SW,225,4.0,8.0,41,0.00,,,0.00,meteohub,2013-01-25 01:31:00,
2013-01-24 19:36:00,10.2,-8.9,21.60,SW,225,4.0,8.0,41,0.00,,,0.00,meteohub,2013-01-25 01:36:00,
2013-01-24 19:41:00,10.2,-8.9,21.59,SW,225,3.0,5.0,41,0.00,,,0.00,meteohub,2013-01-25 01:41:00,
2013-01-24 19:46:00,10.0,-9.0,21.60,West,270,3.0,4.0,41,0.00,,,0.00,meteohub,2013-01-25 01:46:00,
2013-01-24 19:51:00,10.0,-9.4,21.60,South,180,5.0,8.0,40,0.00,,,0.00,meteohub,2013-01-25 01:51:00,
2013-01-24 19:57:00,10.0,-9.4,21.59,West,270,3.0,8.0,40,0.00,,,0.00,meteohub,2013-01-25 01:57:00,
2013-01-24 20:02:00,10.0,-9.4,21.59,SW,225,3.0,6.0,40,0.00,,,0.00,meteohub,2013-01-25 02:02:00,
2013-01-24 20:07:00,10.0,-9.4,21.60,SW,225,3.0,5.0,40,0.00,,,0.00,meteohub,2013-01-25 02:07:00,
2013-01-24 20:12:00,10.0,-9.4,21.60,SW,225,4.0,4.0,40,0.00,,,0.00,meteohub,2013-01-25 02:12:00,
2013-01-24 20:17:00,10.0,-9.4,21.60,South,180,2.0,6.0,40,0.00,,,0.00,meteohub,2013-01-25 02:17:00,
2013-01-24 20:22:00,10.0,-9.4,21.60,South,180,4.0,6.0,40,0.00,,,0.00,meteohub,2013-01-25 02:22:00,
2013-01-24 20:26:00,10.0,-9.4,21.60,SW,225,5.0,5.0,40,0.00,,,0.00,meteohub,2013-01-25 02:26:00,
2013-01-24 20:31:00,10.0,-9.4,21.61,SW,225,4.0,7.0,40,0.00,,,0.00,meteohub,2013-01-25 02:31:00,
2013-01-24 20:36:00,10.0,-9.4,21.62,SW,225,5.0,7.0,40,0.00,,,0.00,meteohub,2013-01-25 02:36:00,
2013-01-24 20:41:00,10.0,-9.4,21.62,West,270,8.0,8.0,40,0.00,,,0.00,meteohub,2013-01-25 02:41:00,
2013-01-24 20:46:00,10.0,-9.0,21.62,SW,225,4.0,8.0,41,0.00,,,0.00,meteohub,2013-01-25 02:46:00,
2013-01-24 20:51:00,10.0,-9.0,21.62,West,270,6.0,8.0,41,0.00,,,0.00,meteohub,2013-01-25 02:51:00,
2013-01-24 20:56:00,10.0,-9.0,21.62,SW,225,7.0,8.0,41,0.00,,,0.00,meteohub,2013-01-25 02:56:00,
2013-01-24 21:01:00,10.0,-8.5,21.63,South,180,3.0,7.0,42,0.00,,,0.00,meteohub,2013-01-25 03:01:00,
2013-01-24 21:06:00,10.0,-8.0,21.64,South,180,4.0,7.0,43,0.00,,,0.00,meteohub,2013-01-25 03:06:00,
2013-01-24 21:11:00,10.0,-7.6,21.64,SW,225,5.0,7.0,44,0.00,,,0.00,meteohub,2013-01-25 03:11:00,
2013-01-24 21:16:00,9.9,-7.8,21.63,SW,225,4.0,6.0,44,0.00,,,0.00,meteohub,2013-01-25 03:16:00,
2013-01-24 21:21:00,9.9,-7.2,21.64,SW,225,3.0,6.0,45,0.00,,,0.00,meteohub,2013-01-25 03:21:00,
2013-01-24 21:26:00,10.0,-7.1,21.63,West,270,4.0,6.0,45,0.00,,,0.00,meteohub,2013-01-25 03:26:00,
2013-01-24 21:31:00,10.0,-6.7,21.65,SW,225,4.0,5.0,46,0.00,,,0.00,meteohub,2013-01-25 03:31:00,
2013-01-24 21:36:00,10.0,-6.7,21.65,SW,225,4.0,5.0,46,0.00,,,0.00,meteohub,2013-01-25 03:36:00,
2013-01-24 21:41:00,10.2,-6.0,21.65,South,180,3.0,4.0,47,0.00,,,0.00,meteohub,2013-01-25 03:41:00,
2013-01-24 21:46:00,10.2,-6.0,21.65,East,90,2.0,7.0,47,0.00,,,0.00,meteohub,2013-01-25 03:46:00,
2013-01-24 21:51:00,10.2,-6.0,21.65,SW,225,2.0,7.0,47,0.00,,,0.00,meteohub,2013-01-25 03:51:00,
2013-01-24 21:56:00,10.2,-5.6,21.65,SW,225,3.0,7.0,48,0.00,,,0.00,meteohub,2013-01-25 03:56:00,
2013-01-24 22:01:00,10.2,-5.6,21.65,South,180,4.0,4.0,48,0.00,,,0.00,meteohub,2013-01-25 04:01:00,
2013-01-24 22:06:00,10.2,-5.6,21.66,South,180,4.0,4.0,48,0.00,,,0.00,meteohub,2013-01-25 04:06:00,
2013-01-24 22:11:00,10.4,-3.3,21.66,West,270,3.0,4.0,53,0.00,,,0.00,meteohub,2013-01-25 04:11:00,
2013-01-24 22:16:00,10.4,-3.3,21.66,SW,225,5.0,5.0,53,0.00,,,0.00,meteohub,2013-01-25 04:16:00,
2013-01-24 22:21:00,10.4,-3.3,21.66,SW,225,2.0,5.0,53,0.00,,,0.00,meteohub,2013-01-25 04:21:00,
2013-01-24 22:26:00,10.4,-2.9,21.67,SSW,203,6.0,6.0,54,0.00,,,0.00,meteohub,2013-01-25 04:26:00,
2013-01-24 22:31:00,10.4,-2.9,21.67,SW,225,4.0,6.0,54,0.00,,,0.00,meteohub,2013-01-25 04:31:00,
2013-01-24 22:36:00,10.4,-2.6,21.67,South,180,3.0,6.0,55,0.00,,,0.00,meteohub,2013-01-25 04:36:00,
2013-01-24 22:41:00,10.4,-2.6,21.67,SW,225,4.0,6.0,55,0.00,,,0.00,meteohub,2013-01-25 04:41:00,
2013-01-24 22:46:00,10.4,-2.6,21.67,SW,225,5.0,6.0,55,0.00,,,0.00,meteohub,2013-01-25 04:46:00,
2013-01-24 22:51:00,10.6,-2.0,21.67,SSW,203,5.0,6.0,56,0.00,,,0.00,meteohub,2013-01-25 04:51:00,
2013-01-24 22:56:00,10.6,-2.0,21.67,South,180,2.0,5.0,56,0.00,,,0.00,meteohub,2013-01-25 04:56:00,
2013-01-24 23:00:00,10.6,-2.0,21.67,South,180,3.0,5.0,56,0.00,,,0.00,meteohub,2013-01-25 05:00:00,
2013-01-24 23:03:00,10.6,-2.0,21.68,South,180,4.0,5.0,56,0.00,,,0.00,meteohub,2013-01-25 05:03:00,
2013-01-24 23:07:00,10.6,-2.0,21.67,South,180,3.0,5.0,56,0.00,,,0.00,meteohub,2013-01-25 05:07:00,
2013-01-24 23:12:00,10.8,-1.5,21.67,West,270,2.0,4.0,57,0.00,,,0.00,meteohub,2013-01-25 05:12:00,
2013-01-24 23:17:00,10.8,-1.5,21.68,SW,225,5.0,7.0,57,0.00,,,0.00,meteohub,2013-01-25 05:17:00,
2013-01-24 23:22:00,10.8,-1.5,21.68,SW,225,4.0,7.0,57,0.00,,,0.00,meteohub,2013-01-25 05:22:00,
2013-01-24 23:27:00,10.8,-1.5,21.68,South,180,2.0,7.0,57,0.00,,,0.00,meteohub,2013-01-25 05:27:00,
2013-01-24 23:32:00,10.9,-1.3,21.68,SW,225,6.0,6.0,57,0.00,,,0.00,meteohub,2013-01-25 05:32:00,
2013-01-24 23:37:00,10.9,-1.3,21.68,SW,225,4.0,8.0,57,0.00,,,0.00,meteohub,2013-01-25 05:37:00,
2013-01-24 23:42:00,11.1,-1.1,21.69,South,180,4.0,8.0,57,0.00,,,0.00,meteohub,2013-01-25 05:42:00,
2013-01-24 23:47:00,11.1,-1.1,21.70,SW,225,5.0,8.0,57,0.00,,,0.00,meteohub,2013-01-25 05:47:00,
2013-01-24 23:52:00,11.1,-1.1,21.71,SW,225,4.0,6.0,57,0.00,,,0.00,meteohub,2013-01-25 05:52:00,
2013-01-24 23:57:00,11.3,-0.9,21.71,SW,225,4.0,6.0,57,0.00,,,0.00,meteohub,2013-01-25 05:57:00,